Poughkeepsie, NY

8:42 PM EDT on June 24, 2018 (GMT -0400)
Dutchess County

Weather History for KPOU - August, 2017

Change the Weather History Date:

Saturday, August 12, 2017

  Actual Average Record
Temperature  
Mean Temperature 71 °F 72 °F  
Max Temperature 80 °F 83 °F 96 °F (2005)
Min Temperature 62 °F 61 °F 47 °F (2006)
Degree Days  
Heating Degree Days 0 0  
Month to date heating degree days 3 0  
Since 1 June heating degree days 56 54  
Since 1 July heating degree days 6 5  
Cooling Degree Days 6 7  
Month to date cooling degree days 71 91  
Year to date cooling degree days 489 494  
Since 1 June cooling degree days 441 458  
Growing Degree Days 20 (Base 50)    
Moisture  
Dew Point 64 °F    
Average Humidity 78    
Maximum Humidity 93    
Minimum Humidity 62    
Precipitation  
Precipitation 0.51 in 0.13 in 2.03 in (2009)
Month to date precipitation 3.85 1.79  
Year to date precipitation 27.39 28.37  
Sea Level Pressure  
Sea Level Pressure 29.91 in    
Wind  
Wind Speed 4 mph (SSE)    
Max Wind Speed 10 mph    
Max Gust Speed 17 mph    
Visibility 8 miles    
Events Rain    
T = Trace of Precipitation, MM = Missing Value Source: NWS Daily Summary

Daily Weather History Graph

Daily Weather History Graph

Search for Another Location

Airport or City:

Astronomy

Aug. 12, 2017 Rise Set
Actual Time 6:01 AM EDT 7:59 PM EDT
Civil Twilight 5:31 AM EDT 8:29 PM EDT
Nautical Twilight 4:54 AM EDT 9:05 PM EDT
Astronomical Twilight 4:14 AM EDT 9:45 PM EDT
Moon 10:50 PM EDT (8/12) 10:57 AM EDT (8/12)
Length of Visible Light 14h 57m
Length of Day
13h 57m
Waning Gibbous, 75% of the Moon is Illuminated
Aug 12
Waning Gibbous
Aug 14
Last Quarter
Aug 21
New
Aug 29
First Quarter
Sep 6
Full

Hourly Weather History & Observations

Time (EDT) Temp. Dew Point Humidity Pressure Visibility Wind Dir Wind Speed Gust Speed Precip Events Conditions
12:53 AM 64.0 °F 62.1 °F 93% 30.00 in 4.0 mi East 3.5 mph - 0.21 in Rain Rain
1:53 AM 64.0 °F 62.1 °F 93% 29.99 in 5.0 mi South 3.5 mph - 0.18 in Rain Rain
2:25 AM 64.0 °F 62.1 °F 93% 30.01 in 1.8 mi Calm Calm - 0.10 in Rain Rain
2:42 AM 63.0 °F 62.1 °F 97% 30.00 in 2.0 mi SE 4.6 mph - 0.20 in Rain Heavy Rain
2:53 AM 63.0 °F 61.0 °F 93% 29.99 in 4.0 mi South 3.5 mph - 0.22 in Rain Rain
3:53 AM 63.0 °F 61.0 °F 93% 29.96 in 5.0 mi Calm Calm - 0.12 in Rain Light Rain
4:53 AM 63.0 °F 61.0 °F 93% 29.95 in 10.0 mi SE 4.6 mph - 0.01 in   Mostly Cloudy
5:53 AM 62.1 °F 60.1 °F 93% 29.96 in 10.0 mi SE 3.5 mph - N/A   Overcast
6:53 AM 63.0 °F 60.1 °F 90% 29.95 in 10.0 mi SSE 3.5 mph - N/A   Overcast
7:53 AM 64.0 °F 61.0 °F 90% 29.94 in 10.0 mi South 3.5 mph - N/A   Mostly Cloudy
8:53 AM 68.0 °F 61.0 °F 78% 29.93 in 10.0 mi Calm Calm - N/A   Clear
9:53 AM 70.0 °F 62.1 °F 76% 29.93 in 10.0 mi Calm Calm - N/A   Mostly Cloudy
10:53 AM 72.0 °F 63.0 °F 73% 29.93 in 10.0 mi Calm Calm - N/A   Mostly Cloudy
11:53 AM 73.9 °F 64.0 °F 71% 29.92 in 10.0 mi WSW 4.6 mph - N/A   Mostly Cloudy
12:53 PM 75.9 °F 64.9 °F 69% 29.91 in 10.0 mi Variable 5.8 mph - N/A   Mostly Cloudy
1:53 PM 77.0 °F 66.0 °F 69% 29.89 in 10.0 mi Variable 3.5 mph - N/A   Mostly Cloudy
2:53 PM 79.0 °F 64.9 °F 62% 29.88 in 10.0 mi SSE 6.9 mph - N/A   Scattered Clouds
3:53 PM 79.0 °F 66.0 °F 64% 29.86 in 10.0 mi South 6.9 mph - N/A   Scattered Clouds
4:53 PM 79.0 °F 66.0 °F 64% 29.83 in 10.0 mi South 5.8 mph - N/A   Partly Cloudy
5:53 PM 77.0 °F 66.0 °F 69% 29.83 in 10.0 mi Variable 4.6 mph - N/A   Clear
6:53 PM 75.9 °F 64.9 °F 69% 29.84 in 10.0 mi South 8.1 mph - N/A   Overcast
8:53 PM 72.0 °F 66.0 °F 81% 29.84 in 10.0 mi SSE 4.6 mph - N/A   Mostly Cloudy
9:53 PM 72.0 °F 66.0 °F 81% 29.86 in 10.0 mi SE 5.8 mph - N/A   Overcast
10:50 PM 71.6 °F 66.2 °F 83% 29.87 in 10.0 mi Calm Calm - N/A   Mostly Cloudy
10:53 PM 71.1 °F 66.0 °F 84% 29.86 in 10.0 mi ESE 3.5 mph - N/A   Mostly Cloudy
11:53 PM 71.1 °F 66.9 °F 87% 29.84 in 10.0 mi SE 3.5 mph - N/A   Overcast